Location: Contre
(49.7477°N, 2.0963°E)
Time: 10:46:43
(UTC+00:00)

METEOR 2-5 DEB - Pass Details

Date: 21 February 2024
Orbit: 788 x 800 km, 81.2° (Epoch: 09 April)

Event Time Altitude Azimuth Distance (km) Brightness Sun altitude
Rises 17:46:53 0° 346° (NNW) 3,319 ? -5.1°
Reaches altitude 10° 17:49:16 10° 346° (NNW) 2,387 ? -5.5°
Maximum altitude 17:54:39 80° 261° (W) 822 ? -6.3°
Drops below altitude 10° 18:00:02 10° 175° (S) 2,378 ? -7.2°
Sets 18:02:24 0° 174° (S) 3,305 ? -7.6°
